Location: Владивосток
(43.1151°N, 131.8856°E)
Time: 18:44:30
(UTC+10:00)

FENGYUN 1C DEB - Pass Details

Date: 23 May 2025
Orbit: 716 x 738 km, 98.8° (Epoch: 20 June)

Event Time Altitude Azimuth Distance (km) Brightness Sun altitude
Exits shadow 01:53:07 53° 109° (ESE) 904 ? -25.6°
Maximum altitude 01:53:50 59° 72° (ENE) 848 ? -25.5°
Drops below altitude 10° 01:58:40 10° 354° (N) 2,239 ? -25.3°
Sets 02:00:58 0° 350° (N) 3,161 ? -25.3°
